Location: Montr�al
(45.5000°N, 73.5830°W)
Time: 17:14:45
(UTC-05:00)

ISS - Visible Passes

Search period start: 02 December 2016 00:00
Search period end: 12 December 2016 00:00
Orbit: 401 x 410 km, 51.6° (Epoch: 03 December)

Date Brightness Start Highest point End Pass type
(mag) Time Alt. Az. Time Alt. Az. Time Alt. Az.
02 Dec -1.5 17:01:28 10° S 17:03:55 20° SE 17:06:08 11° E visible
02 Dec -1.5 18:36:52 10° WSW 18:38:49 33° WSW 18:38:49 33° WSW visible
03 Dec -3.4 17:44:58 10° SW 17:48:15 73° SSE 17:49:07 45° ENE visible
04 Dec -2.6 16:53:16 10° SW 16:56:24 42° SE 16:59:22 11° ENE visible
04 Dec -1.7 18:29:46 10° W 18:32:02 33° WNW 18:32:02 33° WNW visible
05 Dec -3.0 17:37:40 10° WSW 17:40:55 58° NNW 17:42:13 32° NE visible
06 Dec -3.3 16:45:40 10° WSW 16:48:57 89° SSE 16:52:16 10° ENE visible
06 Dec -1.6 18:22:46 10° WNW 18:25:03 27° NW 18:25:03 27° NW visible
07 Dec -2.3 17:30:33 10° W 17:33:39 37° NNW 17:35:09 23° NE visible
07 Dec 0.1 19:07:49 10° WNW 19:07:49 10° WNW 19:07:49 10° WNW visible
08 Dec -2.8 16:38:22 10° W 16:41:35 50° NNW 16:44:50 10° NE visible
08 Dec -1.6 18:15:42 10° WNW 18:17:55 25° NNW 18:17:55 25° NNW visible
09 Dec -2.0 17:23:29 10° WNW 17:26:25 29° N 17:28:00 19° NE visible
09 Dec -0.1 19:00:29 10° NW 19:00:40 11° NW 19:00:40 11° NW visible
10 Dec -1.8 18:08:26 10° NW 18:10:45 26° NNW 18:10:45 26° NNW visible
11 Dec -2.0 17:16:18 10° WNW 17:19:10 27° N 17:20:52 18° NE visible
11 Dec -0.4 18:52:58 10° NW 18:53:32 14° NW 18:53:32 14° NW visible
